Tracking 25620 objects as of 18-May-2022
HD Live streaming from Space Station
objects crossing your sky now

STARLINK-1100

Track STARLINK-1100 now!
10-day predictions
STARLINK-1100 is classified as:


NORAD ID: 44943
Int'l Code: 2020-001AF
Perigee: 553.0 km
Apogee: 555.6 km
Inclination: 53.1 °
Period: 95.6 minutes
Semi major axis: 6925 km
RCS: Unknown
Launch date: January 7, 2020
Source: United States (US)
Launch site: AIR FORCE EASTERN TEST RANGE (AFETR)
aabbcc
Your satellite tracking list
Your tracking list is empty




NASA's NSSDC Master Catalog

Two Line Element Set (TLE):
1 44943U 20001AF  22138.27206565  .00001503  00000-0  11977-3 0  9993
2 44943  53.0558  92.9374 0001884  61.5160 298.6018 15.06405657130407
Source of the keplerian elements: AFSPC